FW1908 Weather Reports


Display with metric or nautical units.
time (UTC)temp
F
wind
direction
speed
MPH
gust
MPH
rain 1hr
in
rain 24hr
in
rain mn
in
humidity
%
barometer
mb
20260505182832 81 319 3.0 12.0 0.00 0.00 0.00 39 1016.1
20260505182332 81 248 3.0 8.0 0.00 0.00 0.00 39 1016.3
20260505181832 80 242 4.0 9.0 0.00 0.00 0.00 39 1016.4
20260505181332 81 274 4.0 11.0 0.00 0.00 0.00 39 1016.4
20260505180833 80 286 3.0 11.0 0.00 0.00 0.00 39 1016.4
20260505180332 80 186 3.0 9.0 0.00 0.00 0.00 38 1016.5
20260505175833 80 282 2.0 9.0 0.00 0.00 0.00 39 1016.5
20260505175332 80 156 2.0 6.0 0.00 0.00 0.00 41 1016.5
20260505174832 80 282 3.0 7.0 0.00 0.00 0.00 39 1016.4
20260505173828 80 283 3.0 7.0 0.00 0.00 0.00 39 1016.5
20260505173329 80 336 3.0 10.0 0.00 0.00 0.00 40 1016.5
20260505172829 80 124 2.0 10.0 0.00 0.00 0.00 39 1016.6
20260505172328 80 61 2.0 6.0 0.00 0.00 0.00 39 1016.5
20260505171828 80 90 3.0 7.0 0.00 0.00 0.00 38 1016.6
20260505171329 80 273 3.0 8.0 0.00 0.00 0.00 39 1016.7
20260505170829 80 231 4.0 11.0 0.00 0.00 0.00 41 1016.6
20260505170329 80 328 5.0 12.0 0.00 0.00 0.00 41 1016.6
20260505170048 80 277 3.0 12.0 0.00 0.00 0.00 38 1016.6
20260505164825 79 217 4.0 12.0 0.00 0.00 0.00 40 1016.8
20260505164325 79 229 5.0 12.0 0.00 0.00 0.00 44 1016.8
20260505163825 78 259 4.0 10.0 0.00 0.00 0.00 41 1017.0
20260505163325 78 202 4.0 8.0 0.00 0.00 0.00 39 1017.1
20260505162826 78 294 4.0 10.0 0.00 0.00 0.00 45 1017.1
20260505162324 78 250 4.0 12.0 0.00 0.00 0.00 43 1017.3
20260505161825 78 285 4.0 12.0 0.00 0.00 0.00 47 1017.3
20260505161543 78 259 3.0 9.0 0.00 0.00 0.00 49 1017.4
20260505160820 77 290 3.0 7.0 0.00 0.00 0.00 47 1017.4
20260505160321 77 275 3.0 10.0 0.00 0.00 0.00 47 1017.5
20260505153314 75 244 2.0 7.0 0.00 0.00 0.00 54 1017.6
20260505152814 74 148 3.0 7.0 0.00 0.00 0.00 54 1017.6
20260505152312 74 280 2.0 6.0 0.00 0.00 0.00 55 1017.7
20260505151812 74 251 2.0 5.0 0.00 0.00 0.00 58 1017.7
20260505151310 73 261 3.0 9.0 0.00 0.00 0.00 60 1017.7
20260505150812 73 292 3.0 9.0 0.00 0.00 0.00 57 1017.7
20260505150305 72 259 3.0 7.0 0.00 0.00 0.00 61 1017.8
20260505140511 67 234 2.0 6.0 0.00 0.00 0.00 72 1017.7
20260505130215 60 292 2.0 6.0 0.00 0.00 0.00 82 1017.6
20260505124916 58 155 2.0 7.0 0.00 0.00 0.00 86 1017.6
20260505124152 57 248 2.0 7.0 0.00 0.00 0.00 88 1017.6
20260505123646 57 236 2.0 4.0 0.00 0.00 0.00 89 1017.6
20260505123140 56 239 1.0 3.0 0.00 0.00 0.00 90 1017.7
20260505122636 55 279 0.0 3.0 0.00 0.00 0.00 90 1017.7
20260505122135 55 279 0.0 3.0 0.00 0.00 0.00 90 1017.7
20260505121633 54 279 0.0 0.0 0.00 0.00 0.00 89 1017.8
20260505121347 54 279 0.0 0.0 0.00 0.00 0.00 89 1017.7
20260505120850 53 279 0.0 0.0 0.00 0.00 0.00 89 1017.6
20260505120346 53 279 0.0 0.0 0.00 0.00 0.00 88 1017.5
20260505115624 53 279 0.0 0.0 0.00 0.00 0.00 88 1017.5
20260505115122 52 279 0.0 0.0 0.00 0.00 0.00 87 1017.3
20260505114118 52 280 0.0 0.0 0.00 0.00 0.00 86 1017.2
20260505113840 52 279 0.0 0.0 0.00 0.00 0.00 85 1017.1
20260505113334 52 280 0.0 0.0 0.00 0.00 0.00 85 1017.2
20260505112842 52 279 0.0 0.0 0.00 0.00 0.00 85 1017.2
20260505112114 52 279 0.0 0.0 0.00 0.00 0.00 84 1017.2
20260505111837 52 280 0.0 0.0 0.00 0.00 0.00 84 1017.2
20260505111113 52 279 0.0 0.0 0.00 0.00 0.00 84 1017.1
20260505110612 52 279 0.0 0.0 0.00 0.00 0.00 83 1017.1
20260505110110 52 271 0.0 0.0 0.00 0.00 0.00 83 1017.0
20260505102043 54 225 0.0 1.0 0.00 0.00 0.00 81 1016.8
20260505101537 54 232 0.0 1.0 0.00 0.00 0.00 80 1016.8
20260505101032 54 232 0.0 0.0 0.00 0.00 0.00 80 1016.7
20260505100526 54 232 0.0 0.0 0.00 0.00 0.00 80 1016.7
20260505100243 54 232 0.0 0.0 0.00 0.00 0.00 80 1016.6
20260505095513 55 232 0.0 0.0 0.00 0.00 0.00 80 1016.5
20260505095007 55 232 0.0 0.0 0.00 0.00 0.00 80 1016.4
20260505094501 55 232 0.0 0.0 0.00 0.00 0.00 79 1016.5
20260505093956 55 232 0.0 0.0 0.00 0.00 0.00 78 1016.4
20260505093449 55 232 0.0 0.0 0.00 0.00 0.00 77 1016.3
20260505093202 56 232 0.0 0.0 0.00 0.00 0.00 77 1016.3
20260505092442 56 232 0.0 0.0 0.00 0.00 0.00 76 1016.2
20260505091939 56 232 0.0 0.0 0.00 0.00 0.00 76 1016.1
20260505091438 56 232 0.0 0.0 0.00 0.00 0.00 76 1016.1
20260505090935 56 232 0.0 0.0 0.00 0.00 0.00 75 1016.1
20260505090434 57 232 0.0 0.0 0.00 0.00 0.00 75 1016.1
20260505085932 57 232 0.0 0.0 0.00 0.00 0.00 75 1016.0
20260505085429 57 232 0.0 0.0 0.00 0.00 0.00 74 1016.0
20260505084929 57 232 0.0 0.0 0.00 0.00 0.00 74 1016.0
20260505084430 57 232 0.0 0.0 0.00 0.00 0.00 74 1016.0
20260505083929 58 232 0.0 0.0 0.00 0.00 0.00 74 1015.9
20260505083652 58 232 0.0 0.0 0.00 0.00 0.00 74 1015.9
20260505082924 58 232 0.0 2.0 0.00 0.00 0.00 74 1015.9
20260505082645 58 232 0.0 2.0 0.00 0.00 0.00 74 1015.9
20260505081921 58 229 0.0 0.0 0.00 0.00 0.00 73 1015.9
20260505081418 58 229 0.0 2.0 0.00 0.00 0.00 73 1015.9
20260505080916 58 229 0.0 2.0 0.00 0.00 0.00 73 1015.9
20260505075914 58 286 0.0 0.0 0.00 0.00 0.00 72 1015.8
20260505075413 58 286 0.0 3.0 0.00 0.00 0.00 72 1015.8
20260505074914 58 286 0.0 3.0 0.00 0.00 0.00 72 1015.7
20260505074413 58 188 0.0 1.0 0.00 0.00 0.00 72 1015.8
20260505073913 59 187 0.0 0.0 0.00 0.00 0.00 72 1015.7
20260505073413 59 187 0.0 0.0 0.00 0.00 0.00 71 1015.8
20260505072410 59 186 0.0 2.0 0.00 0.00 0.00 70 1015.8
20260505071909 59 187 0.0 2.0 0.00 0.00 0.00 70 1015.8
20260505071409 59 157 0.0 1.0 0.00 0.00 0.00 70 1015.8
20260505070908 59 263 0.0 0.0 0.00 0.00 0.00 69 1015.7
20260505070406 59 264 0.0 0.0 0.00 0.00 0.00 69 1015.7
20260505065906 59 263 0.0 0.0 0.00 0.00 0.00 69 1015.7
20260505065407 60 263 0.0 0.0 0.00 0.00 0.00 68 1015.6
20260505064905 60 263 0.0 0.0 0.00 0.00 0.00 68 1015.7
20260505064405 60 264 0.0 0.0 0.00 0.00 0.00 68 1015.7
20260505063908 60 264 0.0 0.0 0.00 0.00 0.00 67 1015.8
20260505063402 60 263 0.0 0.0 0.00 0.00 0.00 67 1015.8
20260505062902 60 264 0.0 1.0 0.00 0.00 0.00 67 1015.8
20260505062403 60 264 0.0 1.0 0.00 0.00 0.00 66 1015.7
20260505061902 60 264 0.0 0.0 0.00 0.00 0.00 66 1015.8
20260505061402 60 264 0.0 0.0 0.00 0.00 0.00 66 1015.8
20260505060902 61 264 0.0 0.0 0.00 0.00 0.00 65 1015.9
20260505060402 61 265 0.0 0.0 0.00 0.00 0.00 64 1015.9
20260505055901 61 265 0.0 0.0 0.00 0.00 0.00 64 1015.9
20260505055402 61 265 0.0 0.0 0.00 0.00 0.00 64 1015.9
20260505054903 61 265 0.0 1.0 0.00 0.00 0.00 64 1015.9
20260505054358 61 265 0.0 1.0 0.00 0.00 0.00 64 1015.8
20260505053858 62 275 0.0 3.0 0.00 0.00 0.00 63 1015.9
20260505053358 62 275 0.0 4.0 0.00 0.00 0.00 63 1015.9
20260505053119 62 171 0.0 4.0 0.00 0.00 0.00 63 1015.9
20260505052358 62 308 0.0 3.0 0.00 0.00 0.00 62 1016.0
20260505051858 62 234 0.0 3.0 0.00 0.00 0.00 62 1015.9
20260505051358 62 327 0.0 1.0 0.00 0.00 0.00 61 1015.9
20260505051122 62 328 0.0 1.0 0.00 0.00 0.00 61 1016.0
20260505050358 62 286 0.0 1.0 0.00 0.00 0.00 61 1016.1
20260505050113 62 244 0.0 1.0 0.00 0.00 0.00 60 1016.1
20260505041350 62 281 0.0 1.0 0.00 0.00 0.00 56 1016.1
20260505040847 61 161 0.0 1.0 0.00 0.00 0.00 56 1016.1
20260505040347 61 161 0.0 1.0 0.00 0.00 0.00 56 1016.1
20260505035608 62 267 0.0 0.0 0.00 0.00 0.00 55 1016.0
20260505034846 62 266 0.0 0.0 0.00 0.00 0.00 56 1016.1
20260505034346 62 266 0.0 0.0 0.00 0.00 0.00 55 1016.0
20260505033346 62 266 0.0 0.0 0.00 0.00 0.00 54 1016.0
20260505033110 62 266 0.0 0.0 0.00 0.00 0.00 53 1016.0
20260505032345 63 266 0.0 0.0 0.00 0.00 0.00 52 1016.0
20260505031842 63 266 0.0 0.0 0.00 0.00 0.00 52 1016.0
20260505031341 63 266 0.0 0.0 0.00 0.00 0.00 52 1016.0
20260505030842 63 266 0.0 0.0 0.00 0.00 0.00 51 1016.0
20260505030341 64 266 0.0 0.0 0.00 0.00 0.00 51 1016.1
20260505025841 64 266 0.0 0.0 0.00 0.00 0.00 50 1016.0
20260505025342 64 266 0.0 0.0 0.00 0.00 0.00 49 1016.1
20260505024841 64 266 0.0 0.0 0.00 0.00 0.00 49 1016.0
20260505024342 64 266 0.0 0.0 0.00 0.00 0.00 48 1016.0
20260505023842 65 266 0.0 0.0 0.00 0.00 0.00 48 1015.9
20260505023337 65 266 0.0 0.0 0.00 0.00 0.00 47 1015.9
20260505022838 65 266 0.0 0.0 0.00 0.00 0.00 48 1015.8
20260505022338 65 266 0.0 0.0 0.00 0.00 0.00 48 1015.8
20260505022055 65 266 0.0 0.0 0.00 0.00 0.00 47 1015.8
20260505021337 65 266 0.0 0.0 0.00 0.00 0.00 47 1015.7
20260505020837 66 266 0.0 0.0 0.00 0.00 0.00 47 1015.7
20260505020337 66 266 0.0 0.0 0.00 0.00 0.00 46 1015.7
20260505015838 66 266 0.0 0.0 0.00 0.00 0.00 44 1015.6
20260505015338 67 266 0.0 0.0 0.00 0.00 0.00 44 1015.5
20260505014833 67 266 0.0 0.0 0.00 0.00 0.00 44 1015.5
20260505014333 67 266 0.0 0.0 0.00 0.00 0.00 44 1015.4
20260505013834 67 266 0.0 0.0 0.00 0.00 0.00 44 1015.3
20260505013334 68 266 0.0 0.0 0.00 0.00 0.00 43 1015.3
20260505012832 68 266 0.0 0.0 0.00 0.00 0.00 43 1015.2
20260505012330 69 266 0.0 0.0 0.00 0.00 0.00 42 1015.2
20260505011829 69 266 0.0 0.0 0.00 0.00 0.00 41 1015.1
20260505011325 70 266 0.0 0.0 0.00 0.00 0.00 40 1015.1
20260505010825 70 266 0.0 0.0 0.00 0.00 0.00 40 1015.0
20260505010549 71 266 0.0 0.0 0.00 0.00 0.00 40 1015.0
20260505010041 71 266 0.0 0.0 0.00 0.00 0.00 39 1014.9
20260505005319 71 266 0.0 0.0 0.00 0.00 0.00 37 1014.9
20260505004817 72 266 0.0 0.0 0.00 0.00 0.00 37 1014.8
20260505003811 73 265 0.0 0.0 0.00 0.00 0.00 37 1014.8
20260505003302 73 265 0.0 0.0 0.00 0.00 0.00 37 1014.7
20260505002300 74 265 0.0 0.0 0.00 0.00 0.00 35 1014.6
20260505001802 74 265 0.0 0.0 0.00 0.00 0.00 35 1014.6
20260505000757 74 265 0.0 0.0 0.00 0.00 0.00 34 1014.6
20260505000255 75 265 0.0 3.0 0.00 0.00 0.00 34 1014.6
20260504235253 75 307 0.0 5.0 0.00 0.00 0.00 33 1014.5
20260504234753 75 224 1.0 5.0 0.00 0.00 0.00 33 1014.4
20260504234251 76 194 0.0 7.0 0.00 0.00 0.00 33 1014.3
20260504234019 76 275 0.0 7.0 0.00 0.00 0.00 33 1014.1
20260504233512 76 248 0.0 3.0 0.00 0.00 0.00 32 1014.1
20260504232749 76 224 0.0 2.0 0.00 0.00 0.00 31 1014.0
20260504232248 76 302 0.0 1.0 0.00 0.00 0.00 30 1014.0
20260504231747 77 39 1.0 6.0 0.00 0.00 0.00 29 1013.9
20260504231518 77 228 1.0 7.0 0.00 0.00 0.00 30 1013.9
20260504230746 77 264 1.0 7.0 0.00 0.00 0.00 30 1013.9
20260504230244 77 243 1.0 4.0 0.00 0.00 0.00 32 1013.9
20260504225739 77 261 0.0 2.0 0.00 0.00 0.00 31 1013.9
20260504225233 77 188 1.0 7.0 0.00 0.00 0.00 32 1013.9
20260504224726 77 245 1.0 7.0 0.00 0.00 0.00 31 1013.9
20260504224221 78 271 0.0 4.0 0.00 0.00 0.00 30 1013.9
20260504223715 78 252 1.0 4.0 0.00 0.00 0.00 29 1013.9
20260504223209 78 254 1.0 5.0 0.00 0.00 0.00 29 1013.9
20260504222925 78 287 1.0 7.0 0.00 0.00 0.00 28 1013.9
20260504222422 78 300 2.0 7.0 0.00 0.00 0.00 28 1013.9
20260504221651 78 281 1.0 7.0 0.00 0.00 0.00 29 1013.9
20260504221145 78 180 1.0 5.0 0.00 0.00 0.00 27 1014.0
20260504220638 78 269 1.0 6.0 0.00 0.00 0.00 29 1014.0
20260504220133 78 265 1.0 7.0 0.00 0.00 0.00 27 1014.0
20260504215846 78 252 1.0 7.0 0.00 0.00 0.00 27 1013.9
20260504215121 78 234 2.0 9.0 0.00 0.00 0.00 27 1013.9
20260504214615 78 238 2.0 9.0 0.00 0.00 0.00 27 1014.0
20260504214109 78 273 1.0 6.0 0.00 0.00 0.00 26 1013.9
20260504213604 78 316 1.0 4.0 0.00 0.00 0.00 26 1013.9
20260504212551 78 190 1.0 3.0 0.00 0.00 0.00 26 1014.1
20260504212046 78 37 2.0 6.0 0.00 0.00 0.00 26 1014.0
20260504211803 78 255 2.0 7.0 0.00 0.00 0.00 27 1014.0
20260504211034 78 259 1.0 7.0 0.00 0.00 0.00 27 1014.0
20260504210755 78 169 1.0 6.0 0.00 0.00 0.00 30 1014.0
20260504210246 78 267 2.0 6.0 0.00 0.00 0.00 28 1014.1
20260504205740 78 288 1.0 8.0 0.00 0.00 0.00 28 1014.3
20260504205009 79 271 0.0 8.0 0.00 0.00 0.00 27 1014.3
20260504204218 79 255 2.0 8.0 0.00 0.00 0.00 25 1014.5
20260504203451 80 290 3.0 8.0 0.00 0.00 0.00 26 1014.5
20260504202945 80 284 2.0 8.0 0.00 0.00 0.00 27 1014.6
20260504202700 80 257 0.0 5.0 0.00 0.00 0.00 27 1014.6
20260504201933 80 75 1.0 7.0 0.00 0.00 0.00 26 1014.7
20260504201427 80 216 1.0 7.0 0.00 0.00 0.00 31 1014.7
20260504201154 80 286 1.0 4.0 0.00 0.00 0.00 26 1014.8
20260504200425 80 77 1.0 5.0 0.00 0.00 0.00 27 1014.7
20260504195926 80 231 1.0 5.0 0.00 0.00 0.00 25 1014.8
20260504195425 81 277 1.0 5.0 0.00 0.00 0.00 25 1015.0
20260504194925 81 273 1.0 4.0 0.00 0.00 0.00 28 1014.9
20260504194424 81 233 1.0 4.0 0.00 0.00 0.00 28 1014.8
20260504193926 80 323 1.0 8.0 0.00 0.00 0.00 25 1015.0
20260504193643 80 251 2.0 8.0 0.00 0.00 0.00 25 1015.0
20260504192924 80 284 2.0 7.0 0.00 0.00 0.00 27 1015.1
20260504192641 80 215 1.0 6.0 0.00 0.00 0.00 25 1015.2
20260504191923 80 75 1.0 6.0 0.00 0.00 0.00 25 1015.2
20260504191423 81 36 2.0 8.0 0.00 0.00 0.00 28 1015.4
20260504190923 80 254 2.0 8.0 0.00 0.00 0.00 27 1015.4
20260504190423 81 289 1.0 8.0 0.00 0.00 0.00 27 1015.4
20260504185923 80 11 1.0 6.0 0.00 0.00 0.00 28 1015.4
20260504185423 80 211 1.0 5.0 0.00 0.00 0.00 31 1015.6
20260504185145 80 237 2.0 5.0 0.00 0.00 0.00 31 1015.5
20260504184417 80 293 2.0 5.0 0.00 0.00 0.00 29 1015.6
20260504183911 80 248 2.0 6.0 0.00 0.00 0.00 28 1015.8
20260504183405 80 145 1.0 6.0 0.00 0.00 0.00 27 1015.8